{"data":{"norad_id":38978,"epoch":"2026-05-25T02:54:05.158656Z","epoch_age_seconds":57853,"freshness":"FRESH","line1":"1 38978U 12061B   26145.12089304  .00000068  00000+0  00000+0 0  9992","line2":"2 38978   0.0129 275.2835 0000755 309.1407 244.7493  1.00269638 49407","mean_motion":1.00269638,"eccentricity":7.55e-5,"inclination_deg":0.0129,"raan_deg":275.2835,"arg_perigee_deg":309.1407,"mean_anomaly_deg":244.7493,"bstar":0,"rev_number":4940,"period_min":1436.127654116,"perigee_km":35784.013371263,"apogee_km":35790.380336675,"semimajor_km":42165.333853969,"source":"CELESTRAK","updated_at":"2026-05-25T13:38:13.915998Z"}}